START_TIME,STEP,MOV.,M29,t_acc.,H22,t_acc.,H26,t_acc.,H30,t_acc.
1981-08-24 03:00:32.990 ,7,1,0.,24.0,0.,24.0,0.,24.0,0.,24.0
1981-08-24 03:00:56.990 ,7,1,0.,24.0,0.,24.0,0.,24.0,0.,24.0
1981-08-24 03:01:20.990 ,7,0,0.,24.0,0.,24.0,0.,24.0,0.,24.0
1981-08-24 03:01:44.990 ,6,1,0.,24.0,0.,24.0,0.,24.0,0.,24.0
1981-08-24 03:02:08.990 ,6,0,0.,24.0,0.,24.0,0.,24.0,0.,24.0
1981-08-24 03:02:32.990 ,5,1,0.,24.0,0.,24.0,0.,24.0,0.,24.0
1981-08-24 03:02:56.990 ,5,0,0.,24.0,0.,24.0,0.,24.0,0.,24.0
1981-08-24 03:03:20.990 ,4,1,0.,24.0,0.,24.0,0.,24.0,0.,24.0
1981-08-24 03:03:44.990 ,4,0,0.,24.0,0.,24.0,0.,24.0,0.,24.0
1981-08-24 03:04:08.990 ,3,1,0.,24.0,0.,24.0,0.,24.0,0.,24.0
1981-08-24 03:04:32.990 ,3,0,0.,24.0,0.,24.0,0.,24.0,0.,24.0
1981-08-24 03:04:56.990 ,2,1,0.,24.0,0.,24.0,0.,24.0,0.,24.0
1981-08-24 03:05:20.990 ,2,0,0.,24.0,0.,24.0,0.,24.0,0.,24.0
1981-08-24 03:05:44.990 ,1,1,0.,24.0,0.,24.0,0.,24.0,0.,24.0
1981-08-24 03:06:08.990 ,1,0,0.,24.0,0.,24.0,0.,24.0,0.,24.0
1981-08-24 03:06:32.990 ,0,1,0.,24.0,0.,24.0,0.,24.0,0.,24.0
1981-08-24 03:06:56.990 ,0,0,0.,24.0,0.,24.0,0.,24.0,0.,24.0
1981-08-24 03:07:20.990 ,0,1,0.,24.0,0.,24.0,0.,24.0,0.,24.0
1981-08-24 03:07:44.990 ,0,0,0.,24.0,0.,24.0,0.,24.0,0.,24.0
1981-08-24 03:08:08.990 ,1,1,0.,24.0,0.,24.0,0.,24.0,0.,24.0
1981-08-24 03:08:32.990 ,1,0,0.,24.0,0.,24.0,0.,24.0,0.,24.0
1981-08-24 03:08:56.990 ,2,1,0.,24.0,0.,24.0,0.,24.0,0.,24.0
1981-08-24 03:09:20.990 ,2,0,0.,24.0,0.,24.0,0.,24.0,0.,24.0
1981-08-24 03:09:44.990 ,3,1,0.,24.0,0.,24.0,0.,24.0,0.,24.0
1981-08-24 03:10:08.990 ,3,0,0.,24.0,0.,24.0,0.,24.0,0.,24.0
1981-08-24 03:10:32.990 ,4,1,0.,24.0,0.,24.0,0.,24.0,0.,24.0
1981-08-24 03:10:56.990 ,4,0,0.,24.0,0.,24.0,0.,24.0,0.,24.0
1981-08-24 03:11:20.990 ,5,1,0.,24.0,0.,24.0,0.,24.0,0.,24.0
1981-08-24 03:11:44.990 ,5,0,0.,24.0,0.,24.0,0.,24.0,0.,24.0
1981-08-24 03:12:08.990 ,6,1,0.,24.0,0.,24.0,0.,24.0,0.,24.0
1981-08-24 03:12:32.990 ,6,0,0.,24.0,0.,24.0,0.,24.0,0.,24.0
1981-08-24 03:12:56.990 ,7,1,0.,24.0,0.,24.0,0.,24.0,0.,24.0
1981-08-24 03:13:20.990 ,7,0,0.,24.0,0.,24.0,0.,24.0,0.,24.0
1981-08-24 03:13:44.990 ,7,1,0.,24.0,0.,24.0,0.,24.0,0.,24.0
1981-08-24 03:14:08.990 ,6,1,0.,24.0,0.,24.0,0.,24.0,0.,24.0
1981-08-24 03:14:32.990 ,5,1,0.,24.0,0.,24.0,0.,24.0,0.,24.0
1981-08-24 03:14:56.990 ,4,1,0.,24.0,0.,24.0,0.,24.0,0.,24.0
1981-08-24 03:15:20.990 ,3,1,0.,24.0,0.,24.0,0.,24.0,0.,24.0
1981-08-24 03:15:44.990 ,2,1,0.,24.0,0.,24.0,0.,24.0,0.,24.0
1981-08-24 03:16:08.990 ,1,1,0.,24.0,0.,24.0,0.,24.0,0.,24.0
1981-08-24 03:16:32.990 ,0,1,0.,24.0,0.,24.0,0.,24.0,0.,24.0
1981-08-24 03:16:56.990 ,0,1,0.,24.0,0.,24.0,0.,24.0,0.,24.0
1981-08-24 03:17:20.980 ,1,1,0.,24.0,0.,24.0,0.,24.0,0.,24.0
1981-08-24 03:17:44.980 ,2,1,0.,24.0,0.,24.0,0.,24.0,0.,24.0
1981-08-24 03:18:08.980 ,3,1,0.,24.0,0.,24.0,0.,24.0,0.,24.0
1981-08-24 03:18:32.980 ,4,1,0.,24.0,0.,24.0,0.,24.0,0.,24.0
1981-08-24 03:18:56.980 ,5,1,0.,24.0,0.,24.0,0.,24.0,0.,24.0
1981-08-24 03:19:20.980 ,6,1,0.,24.0,0.,24.0,0.,24.0,0.,24.0
1981-08-24 03:19:44.980 ,7,1,0.,24.0,0.,24.0,0.,24.0,0.,24.0
1981-08-24 03:20:08.980 ,7,1,0.,24.0,0.,24.0,0.,24.0,0.,24.0
1981-08-24 03:20:32.980 ,7,0,0.,24.0,0.,24.0,0.,24.0,0.,24.0
1981-08-24 03:20:56.980 ,6,1,0.,24.0,0.,24.0,0.,24.0,0.,24.0
1981-08-24 03:21:20.980 ,6,0,0.,24.0,0.,24.0,0.,24.0,0.,24.0
1981-08-24 03:21:44.980 ,5,1,0.,24.0,0.,24.0,0.,24.0,0.,24.0
1981-08-24 03:22:08.980 ,5,0,0.,24.0,0.,24.0,0.,24.0,0.,24.0
1981-08-24 03:22:32.980 ,4,1,0.,24.0,0.,24.0,0.,24.0,0.,24.0
1981-08-24 03:22:56.980 ,4,0,0.,24.0,0.,24.0,0.,24.0,0.,24.0
1981-08-24 03:23:20.980 ,3,1,0.,24.0,0.,24.0,0.,24.0,0.,24.0
1981-08-24 03:23:44.980 ,3,0,0.,24.0,0.,24.0,0.,24.0,0.,24.0
1981-08-24 03:24:08.980 ,2,1,0.,24.0,0.,24.0,0.,24.0,0.,24.0
1981-08-24 03:24:32.980 ,2,0,0.,24.0,0.,24.0,0.,24.0,0.,24.0
1981-08-24 03:24:56.980 ,1,1,0.,24.0,0.,24.0,0.,24.0,0.,24.0
1981-08-24 03:25:20.980 ,1,0,0.,24.0,0.,24.0,0.,24.0,0.,24.0
1981-08-24 03:25:44.980 ,0,1,0.,24.0,0.,24.0,0.,24.0,0.,24.0
1981-08-24 03:26:08.980 ,0,0,0.,24.0,0.,24.0,0.,24.0,0.,24.0
1981-08-24 03:26:32.980 ,0,1,0.,24.0,0.,24.0,0.,24.0,0.,24.0
1981-08-24 03:26:56.980 ,0,0,0.,24.0,0.,24.0,0.,24.0,0.,24.0
1981-08-24 03:27:20.980 ,1,1,0.,24.0,0.,24.0,0.,24.0,0.,24.0
1981-08-24 03:27:44.980 ,1,0,0.,24.0,0.,24.0,0.,24.0,0.,24.0
1981-08-24 03:28:08.980 ,2,1,0.,24.0,0.,24.0,0.,24.0,0.,24.0
1981-08-24 03:28:32.980 ,2,0,0.,24.0,0.,24.0,0.,24.0,0.,24.0
1981-08-24 03:28:56.980 ,3,1,0.,24.0,0.,24.0,0.,24.0,0.,24.0
1981-08-24 03:29:20.980 ,3,0,0.,24.0,0.,24.0,0.,24.0,0.,24.0
1981-08-24 03:29:44.980 ,4,1,0.,24.0,0.,24.0,0.,24.0,0.,24.0
1981-08-24 03:30:08.980 ,4,0,0.,24.0,0.,24.0,0.,24.0,0.,24.0
1981-08-24 03:30:32.980 ,5,1,0.,24.0,0.,24.0,0.,24.0,0.,24.0
1981-08-24 03:30:56.980 ,5,0,0.,24.0,0.,24.0,0.,24.0,0.,24.0
1981-08-24 03:31:20.980 ,6,1,0.,24.0,0.,24.0,0.,24.0,0.,24.0
1981-08-24 03:31:44.980 ,6,0,0.,24.0,0.,24.0,0.,24.0,0.,24.0
1981-08-24 03:32:08.980 ,7,1,0.,24.0,0.,24.0,0.,24.0,0.,24.0
1981-08-24 03:32:32.980 ,7,0,0.,24.0,0.,24.0,0.,24.0,0.,24.0
1981-08-24 03:32:56.980 ,7,1,0.,24.0,0.,24.0,0.,24.0,0.,24.0
1981-08-24 03:33:20.980 ,6,1,0.,24.0,0.,24.0,0.,24.0,0.,24.0
1981-08-24 03:33:44.980 ,5,1,0.,24.0,0.,24.0,0.,24.0,0.,24.0
1981-08-24 03:34:08.980 ,4,1,0.,24.0,0.,24.0,0.,24.0,0.,24.0
1981-08-24 03:34:32.980 ,3,1,0.,24.0,0.,24.0,0.,24.0,0.,24.0
1981-08-24 03:34:56.980 ,2,1,0.,24.0,0.,24.0,0.,24.0,0.,24.0
1981-08-24 03:35:20.980 ,1,1,0.,24.0,0.,24.0,0.,24.0,0.,24.0
1981-08-24 03:35:44.980 ,0,1,0.,24.0,0.,24.0,0.,24.0,0.,24.0
1981-08-24 03:36:08.980 ,0,1,0.,24.0,0.,24.0,0.,24.0,0.,24.0
1981-08-24 03:36:32.980 ,1,1,0.,24.0,0.,24.0,0.,24.0,0.,24.0
1981-08-24 03:37:44.980 ,0,0,0.,24.0,0.,24.0,0.,24.0,0.,24.0
1981-08-24 03:38:08.980 ,5,1,0.,24.0,0.,24.0,0.,24.0,0.,24.0
1981-08-24 03:38:32.980 ,6,1,0.,24.0,0.,24.0,0.,24.0,0.,24.0
1981-08-24 03:38:56.980 ,7,1,0.,24.0,0.,24.0,0.,24.0,0.,24.0
1981-08-24 03:39:20.980 ,7,1,0.,24.0,0.,24.0,0.,24.0,0.,24.0
1981-08-24 03:39:44.980 ,7,0,0.,24.0,0.,24.0,0.,24.0,0.,24.0
1981-08-24 03:40:08.980 ,6,1,0.,24.0,0.,24.0,0.,24.0,0.,24.0
1981-08-24 03:40:32.980 ,6,0,0.,24.0,0.,24.0,0.,24.0,0.,24.0
1981-08-24 03:40:56.980 ,5,1,0.,24.0,0.,24.0,0.,24.0,0.,24.0
1981-08-24 03:41:20.980 ,5,0,0.,24.0,0.,24.0,0.,24.0,0.,24.0
1981-08-24 03:41:44.980 ,4,1,0.,24.0,0.,24.0,0.,24.0,0.,24.0
1981-08-24 03:42:08.980 ,4,0,0.,24.0,0.,24.0,0.,24.0,0.,24.0
1981-08-24 03:42:32.980 ,3,1,0.,24.0,0.,24.0,0.,24.0,0.,24.0
1981-08-24 03:42:56.980 ,3,0,0.,24.0,0.,24.0,0.,24.0,0.,24.0
1981-08-24 03:43:20.980 ,2,1,0.,24.0,0.,24.0,0.,24.0,0.,24.0
1981-08-24 03:43:44.980 ,2,0,0.,24.0,0.,24.0,0.,24.0,0.,24.0
1981-08-24 03:44:08.980 ,1,1,0.,24.0,0.,24.0,0.,24.0,0.,24.0
1981-08-24 03:44:32.980 ,1,0,0.,24.0,0.,24.0,0.,24.0,0.,24.0
1981-08-24 03:44:56.980 ,0,1,0.,24.0,0.,24.0,0.,24.0,0.,24.0
1981-08-24 03:45:20.980 ,0,0,0.,24.0,0.,24.0,0.,24.0,0.,24.0
1981-08-24 03:45:44.980 ,0,1,0.,24.0,0.,24.0,0.,24.0,0.,24.0
1981-08-24 03:46:08.980 ,0,0,0.,24.0,0.,24.0,0.,24.0,0.,24.0
1981-08-24 03:46:32.980 ,1,1,0.,24.0,0.,24.0,0.,24.0,0.,24.0
1981-08-24 03:46:56.980 ,1,0,0.,24.0,0.,24.0,0.,24.0,0.,24.0
1981-08-24 03:47:20.980 ,2,1,0.,24.0,0.,24.0,0.,24.0,0.,24.0
1981-08-24 03:47:44.980 ,2,0,0.,24.0,0.,24.0,0.,24.0,0.,24.0
1981-08-24 03:48:08.980 ,3,1,0.,24.0,0.,24.0,0.,24.0,0.,24.0
1981-08-24 03:48:32.980 ,3,0,0.,24.0,0.,24.0,0.,24.0,0.,24.0
1981-08-24 03:48:56.980 ,4,1,0.,24.0,0.,24.0,0.,24.0,0.,24.0
1981-08-24 03:49:20.980 ,4,0,0.,24.0,0.,24.0,0.,24.0,0.,24.0
1981-08-24 03:49:44.980 ,5,1,0.,24.0,0.,24.0,0.,24.0,0.,24.0
1981-08-24 03:50:08.980 ,5,0,0.,24.0,0.,24.0,0.,24.0,0.,24.0
1981-08-24 03:50:32.980 ,6,1,0.,24.0,0.,24.0,0.,24.0,0.,24.0
1981-08-24 03:50:56.980 ,6,0,0.,24.0,0.,24.0,0.,24.0,0.,24.0
1981-08-24 03:51:20.980 ,7,1,0.,24.0,0.,24.0,0.,24.0,0.,24.0
1981-08-24 03:51:44.980 ,7,0,0.,24.0,0.,24.0,0.,24.0,0.,24.0
1981-08-24 03:52:08.980 ,7,1,0.,24.0,0.,24.0,0.,24.0,0.,24.0
1981-08-24 03:52:32.980 ,6,1,0.,24.0,0.,24.0,0.,24.0,0.,24.0
1981-08-24 03:52:56.980 ,5,1,0.,24.0,0.,24.0,0.,24.0,0.,24.0
1981-08-24 03:53:20.980 ,4,1,0.,24.0,0.,24.0,0.,24.0,0.,24.0
1981-08-24 03:53:44.980 ,3,1,0.,24.0,0.,24.0,0.,24.0,0.,24.0
1981-08-24 03:54:08.980 ,2,1,0.,24.0,0.,24.0,0.,24.0,0.,24.0
1981-08-24 03:54:32.980 ,1,1,0.,24.0,0.,24.0,0.,24.0,0.,24.0
1981-08-24 03:54:56.980 ,0,1,0.,24.0,0.,24.0,0.,24.0,0.,24.0
1981-08-24 03:55:20.980 ,0,1,0.,24.0,0.,24.0,0.,24.0,0.,24.0
1981-08-24 03:55:44.980 ,1,1,0.,24.0,0.,24.0,0.,24.0,0.,24.0
1981-08-24 03:56:08.980 ,2,1,0.,24.0,0.,24.0,0.,24.0,0.,24.0
1981-08-24 03:56:32.980 ,3,1,0.,24.0,0.,24.0,0.,24.0,0.,24.0
1981-08-24 03:56:56.980 ,4,1,0.,24.0,0.,24.0,0.,24.0,0.,24.0
1981-08-24 03:57:20.980 ,5,1,0.,24.0,0.,24.0,0.,24.0,0.,24.0
1981-08-24 03:57:44.980 ,6,1,0.,24.0,0.,24.0,0.,24.0,0.,24.0
1981-08-24 03:58:08.980 ,7,1,0.,24.0,0.,24.0,0.,24.0,0.,24.0
1981-08-24 03:58:32.980 ,7,1,0.,24.0,0.,24.0,0.,24.0,0.,24.0
1981-08-24 03:58:56.980 ,7,0,0.,24.0,0.,24.0,0.,24.0,0.,24.0
1981-08-24 03:59:20.980 ,6,1,0.,24.0,0.,24.0,0.,24.0,0.,24.0
1981-08-24 03:59:44.980 ,6,0,0.,24.0,0.,24.0,0.,24.0,0.,24.0
1981-08-24 04:00:08.980 ,5,1,0.,24.0,0.,24.0,0.,24.0,0.,24.0
1981-08-24 04:00:32.980 ,5,0,0.,24.0,0.,24.0,0.,24.0,0.,24.0
1981-08-24 04:00:56.980 ,4,1,0.,24.0,0.,24.0,0.,24.0,0.,24.0
1981-08-24 04:01:20.980 ,4,0,0.,24.0,0.,24.0,0.,24.0,0.,24.0
1981-08-24 04:01:44.980 ,3,1,0.,24.0,0.,24.0,0.,24.0,0.,24.0
1981-08-24 04:02:08.980 ,3,0,0.,24.0,0.,24.0,0.,24.0,0.,24.0
1981-08-24 04:02:32.980 ,2,1,0.,24.0,0.,24.0,0.,24.0,0.,24.0
1981-08-24 04:02:56.980 ,2,0,0.,24.0,0.,24.0,0.,24.0,0.,24.0
1981-08-24 04:03:20.980 ,1,1,0.,24.0,0.,24.0,0.,24.0,0.,24.0
1981-08-24 04:03:44.980 ,1,0,0.,24.0,0.,24.0,0.,24.0,0.,24.0
1981-08-24 04:04:08.980 ,0,1,0.,24.0,0.,24.0,0.,24.0,0.,24.0
1981-08-24 04:04:32.980 ,0,0,0.,24.0,0.,24.0,0.,24.0,0.,24.0
1981-08-24 04:04:56.980 ,0,1,0.,24.0,0.,24.0,0.,24.0,0.,24.0
1981-08-24 04:05:20.980 ,0,0,0.,24.0,0.,24.0,0.,24.0,0.,24.0
1981-08-24 04:05:44.980 ,1,1,0.,24.0,0.,24.0,0.,24.0,0.,24.0
1981-08-24 04:06:08.980 ,1,0,0.,24.0,0.,24.0,0.,24.0,0.,24.0
1981-08-24 04:06:32.980 ,2,1,0.,24.0,0.,24.0,0.,24.0,0.,24.0
1981-08-24 04:06:56.980 ,2,0,0.,24.0,0.,24.0,0.,24.0,0.,24.0
1981-08-24 04:07:20.980 ,3,1,0.,24.0,0.,24.0,0.,24.0,0.,24.0
1981-08-24 04:07:44.980 ,3,0,0.,24.0,0.,24.0,0.,24.0,0.,24.0
1981-08-24 04:08:08.980 ,4,1,0.,24.0,0.,24.0,0.,24.0,0.,24.0
1981-08-24 04:08:32.980 ,4,0,0.,24.0,0.,24.0,0.,24.0,0.,24.0
1981-08-24 04:08:56.980 ,5,1,0.,24.0,0.,24.0,0.,24.0,0.,24.0
1981-08-24 04:09:20.980 ,5,0,0.,24.0,0.,24.0,0.,24.0,0.,24.0
1981-08-24 04:09:44.980 ,6,1,0.,24.0,0.,24.0,0.,24.0,0.,24.0
1981-08-24 04:10:08.980 ,6,0,0.,24.0,0.,24.0,0.,24.0,0.,24.0
1981-08-24 04:10:32.980 ,7,1,0.,24.0,0.,24.0,0.,24.0,0.,24.0
1981-08-24 04:10:56.980 ,7,0,0.,24.0,0.,24.0,0.,24.0,0.,24.0
1981-08-24 04:11:20.980 ,7,1,0.,24.0,0.,24.0,0.,24.0,0.,24.0
1981-08-24 04:11:44.980 ,6,1,0.,24.0,0.,24.0,0.,24.0,0.,24.0
1981-08-24 04:12:08.980 ,5,1,0.,24.0,0.,24.0,0.,24.0,0.,24.0
1981-08-24 04:12:32.980 ,4,1,0.,24.0,0.,24.0,0.,24.0,0.,24.0
1981-08-24 04:12:56.980 ,3,1,0.,24.0,0.,24.0,0.,24.0,0.,24.0
1981-08-24 04:13:20.980 ,2,1,0.,24.0,0.,24.0,0.,24.0,0.,24.0
1981-08-24 04:13:44.980 ,1,1,0.,24.0,0.,24.0,0.,24.0,0.,24.0
1981-08-24 04:14:08.980 ,0,1,0.,24.0,0.,24.0,0.,24.0,0.,24.0
1981-08-24 04:14:32.980 ,0,1,0.,24.0,0.,24.0,0.,24.0,0.,24.0
1981-08-24 04:14:56.980 ,1,1,0.,24.0,0.,24.0,0.,24.0,0.,24.0
1981-08-24 04:15:20.980 ,2,1,0.,24.0,0.,24.0,0.,24.0,0.,24.0
1981-08-24 04:15:44.980 ,3,1,0.,24.0,0.,24.0,0.,24.0,0.,24.0
1981-08-24 04:16:08.980 ,4,1,0.,24.0,0.,24.0,0.,24.0,0.,24.0
1981-08-24 04:16:32.980 ,5,1,0.,24.0,0.,24.0,0.,24.0,0.,24.0
1981-08-24 04:16:56.980 ,6,1,0.,24.0,0.,24.0,0.,24.0,0.,24.0
1981-08-24 04:17:20.980 ,7,1,0.,24.0,0.,24.0,0.,24.0,0.,24.0
1981-08-24 04:17:44.980 ,7,1,0.,24.0,0.,24.0,0.,24.0,0.,24.0
1981-08-24 04:18:08.980 ,7,0,0.,24.0,0.,24.0,0.,24.0,0.,24.0
1981-08-24 04:18:32.980 ,6,1,0.,24.0,0.,24.0,0.,24.0,0.,24.0
1981-08-24 04:18:56.980 ,6,0,0.,24.0,0.,24.0,0.,24.0,0.,24.0
1981-08-24 04:19:20.980 ,5,1,0.,24.0,0.,24.0,0.,24.0,0.,24.0
1981-08-24 04:19:44.980 ,5,0,0.,24.0,0.,24.0,0.,24.0,0.,24.0
1981-08-24 04:20:08.980 ,4,1,0.,24.0,0.,24.0,0.,24.0,0.,24.0
1981-08-24 04:20:32.980 ,4,0,0.,24.0,0.,24.0,0.,24.0,0.,24.0
1981-08-24 04:20:56.980 ,3,1,0.,24.0,0.,24.0,0.,24.0,0.,24.0
1981-08-24 04:21:20.980 ,3,0,0.,24.0,0.,24.0,0.,24.0,0.,24.0
1981-08-24 04:21:44.980 ,2,1,0.,24.0,0.,24.0,0.,24.0,0.,24.0
1981-08-24 04:22:08.980 ,2,0,0.,24.0,0.,24.0,0.,24.0,0.,24.0
1981-08-24 04:22:32.980 ,1,1,0.,24.0,0.,24.0,0.,24.0,0.,24.0
1981-08-24 04:22:56.980 ,1,0,0.,24.0,0.,24.0,0.,24.0,0.,24.0
1981-08-24 04:23:20.980 ,0,1,0.,24.0,0.,24.0,0.,24.0,0.,24.0
1981-08-24 04:23:44.980 ,0,0,0.,24.0,0.,24.0,0.,24.0,0.,24.0
1981-08-24 04:24:08.980 ,0,1,0.,24.0,0.,24.0,0.,24.0,0.,24.0
1981-08-24 04:24:32.980 ,0,0,0.,24.0,0.,24.0,0.,24.0,0.,24.0
1981-08-24 04:24:56.980 ,1,1,0.,24.0,0.,24.0,0.,24.0,0.,24.0
1981-08-24 04:25:20.980 ,1,0,0.,24.0,0.,24.0,0.,24.0,0.,24.0
1981-08-24 04:25:44.980 ,2,1,0.,24.0,0.,24.0,0.,24.0,0.,24.0
1981-08-24 04:26:08.980 ,2,0,0.,24.0,0.,24.0,0.,24.0,0.,24.0
1981-08-24 04:26:32.980 ,3,1,0.,24.0,0.,24.0,0.,24.0,0.,24.0
1981-08-24 04:26:56.980 ,3,0,0.,24.0,0.,24.0,0.,24.0,0.,24.0
1981-08-24 04:27:20.980 ,4,1,0.,24.0,0.,24.0,0.,24.0,0.,24.0
1981-08-24 04:27:44.980 ,4,0,0.,24.0,0.,24.0,0.,24.0,0.,24.0
1981-08-24 04:28:08.980 ,5,1,0.,24.0,0.,24.0,0.,24.0,0.,24.0
1981-08-24 04:28:32.980 ,5,0,0.,24.0,0.,24.0,0.,24.0,0.,24.0
1981-08-24 04:28:56.980 ,6,1,0.,24.0,0.,24.0,0.,24.0,0.,24.0
1981-08-24 04:29:20.980 ,6,0,0.,24.0,0.,24.0,0.,24.0,0.,24.0
1981-08-24 04:29:44.980 ,7,1,0.,24.0,0.,24.0,0.,24.0,0.,24.0
1981-08-24 04:30:08.980 ,7,0,0.,24.0,0.,24.0,0.,24.0,0.,24.0
1981-08-24 04:30:32.980 ,7,1,0.,24.0,0.,24.0,0.,24.0,0.,24.0
1981-08-24 04:30:56.980 ,6,1,0.,24.0,0.,24.0,0.,24.0,0.,24.0
1981-08-24 04:31:20.980 ,5,1,0.,24.0,0.,24.0,0.,24.0,0.,24.0
1981-08-24 04:31:44.980 ,4,1,0.,24.0,0.,24.0,0.,24.0,0.,24.0
1981-08-24 04:32:08.980 ,3,1,0.,24.0,0.,24.0,0.,24.0,0.,24.0
1981-08-24 04:32:32.980 ,2,1,0.,24.0,0.,24.0,0.,24.0,0.,24.0
1981-08-24 04:32:56.980 ,1,1,0.,24.0,0.,24.0,0.,24.0,0.,24.0
1981-08-24 04:33:20.980 ,0,1,0.,24.0,0.,24.0,0.,24.0,0.,24.0
1981-08-24 04:33:44.980 ,0,1,0.,24.0,0.,24.0,0.,24.0,0.,24.0
1981-08-24 04:34:08.980 ,1,1,0.,24.0,0.,24.0,0.,24.0,0.,24.0
1981-08-24 04:34:32.980 ,2,1,0.,24.0,0.,24.0,0.,24.0,0.,24.0
1981-08-24 04:34:56.980 ,3,1,0.,24.0,0.,24.0,0.,24.0,0.,24.0
1981-08-24 04:35:20.980 ,4,1,0.,24.0,0.,24.0,0.,24.0,0.,24.0
1981-08-24 04:35:44.980 ,5,1,0.,24.0,0.,24.0,0.,24.0,0.,24.0
1981-08-24 04:36:08.980 ,6,1,0.,24.0,0.,24.0,0.,24.0,0.,24.0
1981-08-24 04:36:32.980 ,7,1,0.,24.0,0.,24.0,0.,24.0,0.,24.0
1981-08-24 04:36:56.980 ,7,1,0.,24.0,0.,24.0,0.,24.0,0.,24.0
1981-08-24 04:37:20.980 ,7,0,0.,24.0,0.,24.0,0.,24.0,0.,24.0
1981-08-24 04:37:44.980 ,6,1,0.,24.0,0.,24.0,0.,24.0,0.,24.0
1981-08-24 04:38:08.980 ,6,0,0.,24.0,0.,24.0,0.,24.0,0.,24.0
1981-08-24 04:38:32.980 ,5,1,0.,24.0,0.,24.0,0.,24.0,0.,24.0
1981-08-24 04:38:56.980 ,5,0,0.,24.0,0.,24.0,0.,24.0,0.,24.0
1981-08-24 04:39:20.980 ,4,1,0.,24.0,0.,24.0,0.,24.0,0.,24.0
1981-08-24 04:39:44.980 ,4,0,0.,24.0,0.,24.0,0.,24.0,0.,24.0
1981-08-24 04:40:08.980 ,3,1,0.,24.0,0.,24.0,0.,24.0,0.,24.0
1981-08-24 04:40:32.980 ,3,0,0.,24.0,0.,24.0,0.,24.0,0.,24.0
1981-08-24 04:40:56.980 ,2,1,0.,24.0,0.,24.0,0.,24.0,0.,24.0
1981-08-24 04:41:20.980 ,2,0,0.,24.0,0.,24.0,0.,24.0,0.,24.0
1981-08-24 04:41:44.980 ,1,1,0.,24.0,0.,24.0,0.,24.0,0.,24.0
1981-08-24 04:42:08.980 ,1,0,0.,24.0,0.,24.0,0.,24.0,0.,24.0
1981-08-24 04:42:32.980 ,0,1,0.,24.0,0.,24.0,0.,24.0,0.,24.0
1981-08-24 04:42:56.980 ,0,0,0.,24.0,0.,24.0,0.,24.0,0.,24.0
1981-08-24 04:43:20.980 ,0,1,0.,24.0,0.,24.0,0.,24.0,0.,24.0
1981-08-24 04:43:44.980 ,0,0,0.,24.0,0.,24.0,0.,24.0,0.,24.0
1981-08-24 04:44:08.980 ,1,1,0.,24.0,0.,24.0,0.,24.0,0.,24.0
1981-08-24 04:44:32.980 ,1,0,0.,24.0,0.,24.0,0.,24.0,0.,24.0
1981-08-24 04:44:56.980 ,2,1,0.,24.0,0.,24.0,0.,24.0,0.,24.0
1981-08-24 04:45:20.980 ,2,0,0.,24.0,0.,24.0,0.,24.0,0.,24.0
1981-08-24 04:45:44.980 ,3,1,0.,24.0,0.,24.0,0.,24.0,0.,24.0
1981-08-24 04:46:08.980 ,3,0,0.,24.0,0.,24.0,0.,24.0,0.,24.0
1981-08-24 04:46:32.980 ,4,1,0.,24.0,0.,24.0,0.,24.0,0.,24.0
1981-08-24 04:46:56.980 ,4,0,0.,24.0,0.,24.0,0.,24.0,0.,24.0
1981-08-24 04:47:20.980 ,5,1,0.,24.0,0.,24.0,0.,24.0,0.,24.0
1981-08-24 04:47:44.980 ,5,0,0.,24.0,0.,24.0,0.,24.0,0.,24.0
1981-08-24 04:48:08.980 ,6,1,0.,24.0,0.,24.0,0.,24.0,0.,24.0
1981-08-24 04:48:32.980 ,6,0,0.,24.0,0.,24.0,0.,24.0,0.,24.0
1981-08-24 04:48:56.980 ,7,1,0.,24.0,0.,24.0,0.,24.0,0.,24.0
1981-08-24 04:49:20.980 ,7,0,0.,24.0,0.,24.0,0.,24.0,0.,24.0
1981-08-24 04:49:44.980 ,7,1,0.,24.0,0.,24.0,0.,24.0,0.,24.0
1981-08-24 04:50:08.980 ,6,1,0.,24.0,0.,24.0,0.,24.0,0.,24.0
1981-08-24 04:50:32.980 ,5,1,0.,24.0,0.,24.0,0.,24.0,0.,24.0
1981-08-24 04:50:56.980 ,4,1,0.,24.0,0.,24.0,0.,24.0,0.,24.0
1981-08-24 04:51:20.980 ,3,1,0.,24.0,0.,24.0,0.,24.0,0.,24.0
1981-08-24 04:51:44.980 ,2,1,0.,24.0,0.,24.0,0.,24.0,0.,24.0
1981-08-24 04:52:08.980 ,1,1,0.,24.0,0.,24.0,0.,24.0,0.,24.0
1981-08-24 04:52:32.980 ,0,1,0.,24.0,0.,24.0,0.,24.0,0.,24.0
1981-08-24 04:52:56.980 ,0,1,0.,24.0,0.,24.0,0.,24.0,0.,24.0
1981-08-24 04:53:20.980 ,1,1,0.,24.0,0.,24.0,0.,24.0,0.,24.0
1981-08-24 04:53:44.980 ,2,1,0.,24.0,0.,24.0,0.,24.0,0.,24.0
1981-08-24 04:54:08.980 ,3,1,0.,24.0,0.,24.0,0.,24.0,0.,24.0
1981-08-24 04:54:32.980 ,0,0,0.,24.0,0.,24.0,0.,24.0,0.,24.0
1981-08-24 04:54:56.980 ,0,0,,0,,0,,0,,0
